Regional Weather Roundup
Issued by NWS

Home | Current Version | Previous Version | Graphics & Text | Print | Product List | Glossary On
Versions: 1 2 3 4 5 6 7 8 9 10 11 12 13 14 15 16 17 18 19 20 21 22 23 24 25 26 27 28 29 30 31 32 33 34 35 36 37 38 39 40 41 42 43 44 45 46 47 48 49 50
000
ASUS43 KLMK 272002
RWRKY
KENTUCKY REGIONAL WEATHER ROUNDUP
NATIONAL WEATHER SERVICE LOUISVILLE KY
400 PM EDT FRI MAR 27 2015

NOTE "FAIR" INDICATES FEW OR NO CLOUDS BELOW 12,000 FEET
WITH NO SIGNIFICANT WEATHER AND/OR OBSTRUCTIONS TO VISIBILITY.

KYZ001>023-026-027-061>063-070>075-272100-
WESTERN AND SOUTH CENTRAL KENTUCKY

CITY           SKY/WX    TMP DP  RH WIND       PRES   REMARKS
PADUCAH        CLOUDY    41  27  57 N15G21    30.10F
HENDERSON      CLOUDY    37  25  60 NW12G17   30.09S WCI  30
OWENSBORO      PTSUNNY   39  27  62 N16G22    30.08S WCI  30
HOPKINSVILLE   DRIZZLE   42  33  70 N13G22    30.04S
BOWLING GREEN  CLOUDY    43  28  55 NW10      30.02S
GLASGOW        NOT AVBL
$$

KYZ024-025-028>034-038-045-046-053-272100-
NORTH CENTRAL KENTUCKY

CITY           SKY/WX    TMP DP  RH WIND       PRES   REMARKS
LOUISVILLE/SDF FLURRIES  39  25  57 N16       30.04R WCI  30
LOUISVILLE/LOU CLOUDY    38  25  59 NW14      30.04R WCI  30
FORT KNOX      CLOUDY    39  26  59 NW13      30.01S WCI  31
$$

KYZ035>037-039>044-047>052-055>060-089>105-272100-
NORTHEAST KENTUCKY

CITY           SKY/WX    TMP DP  RH WIND       PRES   REMARKS
LEXINGTON      CLOUDY    38  23  55 N16       29.98S WCI  29
COVINGTON      FLURRIES  33  21  61 N21       30.01S WCI  21
FRANKFORT      CLOUDY    37  23  56 N15       30.00R WCI  28
$$

KYZ054-064>069-076>088-106>120-272100-
SOUTHEAST KENTUCKY

CITY           SKY/WX    TMP DP  RH WIND       PRES   REMARKS
JACKSON        CLOUDY    41  24  51 NW9G18    29.89S
LONDON         CLOUDY    43  26  51 NW16G23   29.92R
SOMERSET       CLOUDY    41  27  56 N10       29.97R
MIDDLESBORO    PTSUNNY   47  27  45 NW9       29.88S
MONTICELLO     CLOUDY    45  28  51 NW10G20   29.98R
$$



USA.gov is the U.S. government's official web portal to all federal, state and local government web resources and services.